Weather in Vislaya Polyana

Russia / Lipetsk Oblast     52°08′57″N   38°36′53″E
temp.,
°C
wind,
m/s
gust,
m/s
humid.,
%
clouds,
%
prec.,
mm/h
press.,
hPa
HPBL,
m
14 may, fri
fri1400:00+11ese2292100 0.0 101622
03:00+11ese3394100 0.4 101644
06:00+12ese369496 0.3 1016144
09:00+17se588096 0.4 1015432
12:00+21se71065100 0.0 10151028
15:00+18sse81481100 1.1 1014719
18:00+19se61281100 0.0 1012436
21:00+18ese7158071 0.1 1011321
15 may, sat
sat1500:00+16se4129397 0.0 1010235
03:00+15s489475 0.0 1010143
06:00+15ssw249499 0.4 101194
09:00+19ssw5873100 0.4 1011464
12:00+21ssw69571 0.0 10121163
15:00+22ssw79520 0.0 10121915
18:00+20ssw5865100 0.0 1012530
21:00+16sw347911 0.1 101449
16 may, sun
sun1600:00+14sw34833 0.0 101448
03:00+13sw228521 0.0 101521
06:00+14s22825 0.0 101544
09:00+19sse34639 0.0 1015481
12:00+22sw24494 0.0 10151954
15:00+23s234494 0.0 10142030
18:00+23ese2257100 0.0 1014187
21:00+17ne336698 0.0 101427
17 may, mon
mon1700:00+16ne487026 0.0 1013130
03:00+14ene4118876 0.0 1013210
06:00+15ene5118881 0.0 1012255
09:00+21ese466666 0.0 1012347
12:00+25se684956 0.0 1011895
15:00+27ese69502 0.0 10101656
18:00+24ese611604 0.0 1010457
21:00+18ese513770 0.0 1010245
18 may, tue
tue1800:00+17ese514760 0.0 1009266
03:00+15se4117684 0.0 1008206
06:00+15se4107819 0.0 1008213
09:00+21sse61073100 0.0 1008615
12:00+23s7973100 0.0 10091166
15:00+22ssw8972100 1.0 10101135
18:00+20ssw4778100 0.6 1010775
21:00+17sw3491100 0.6 101289